Wind_Speed
17 16 14 14 14 16 17 17 17 16 15 14 12 10 9 8 8 8 8 9 9 8 7 7 6 6 6 8 10 19 24 10 11 11 14 7 8 15 11 9 12 10 15 15 14
18 16 15 15 15 16 17 18 18 17 16 16 14 12 10 9 8 6 7 7 8 7 7 7 6 6 5 6 7 14 21 11 11 10 14 14 11 14 10 9 12 10 16 11 12
18 17 17 16 15 15 17 19 19 18 17 17 16 15 14 13 10 9 7 6 6 7 8 7 6 5 5 4 5 10 15 15 14 24 18 17 12 14 9 9 13 13 17 14 15
18 18 18 17 17 16 16 17 18 18 18 18 18 17 17 16 14 13 11 9 6 4 5 6 6 6 5 4 5 8 11 20 20 15 19 17 14 14 11 13 10 12 19 15 16
17 16 16 16 16 16 16 16 16 17 18 19 19 19 19 19 15 15 14 13 11 7 5 5 5 5 6 5 6 8 10 15 20 24 17 19 20 17 13 11 11 12 15 11 10
16 15 15 15 15 14 13 14 14 15 17 18 19 20 21 22 18 17 16 14 14 11 7 5 5 6 6 8 8 9 10 10 15 23 21 20 20 17 11 13 13 12 11 10 9
17 17 15 15 15 15 14 13 14 14 15 16 17 19 20 21 21 19 19 16 14 13 12 8 7 7 7 9 9 10 11 12 13 14 24 23 26 21 14 21 15 14 10 12 12
21 21 21 20 20 19 19 18 18 17 16 16 16 16 16 19 21 19 20 20 16 13 13 14 11 9 9 8 11 11 12 10 13 13 18 22 15 10 12 19 14 13 13 10 15
19 18 18 18 18 18 19 19 19 19 19 19 19 17 16 16 16 18 19 20 18 15 14 15 15 13 12 12 11 11 10 11 5 15 14 16 13 8 14 20 20 15 14 19 14
22 21 21 21 20 19 18 17 16 17 18 20 21 21 19 18 17 17 16 17 19 16 16 15 16 18 15 15 9 9 14 10 12 13 18 17 15 17 20 17 17 16 16 16 23
24 23 23 23 23 22 22 21 21 21 21 20 19 20 17 17 21 20 17 15 16 19 18 17 17 17 19 22 20 22 19 16 14 16 22 17 16 20 19 22 20 19 17 19 19
20 20 20 20 18 15 15 16 18 20 22 22 23 23 20 18 18 17 19 16 15 17 19 17 18 18 23 25 24 23 21 19 22 23 23 19 16 16 18 18 18 22 24 21 21
18 14 12 12 14 15 14 14 16 17 17 16 19 21 21 21 21 18 14 17 16 15 16 17 18 20 20 24 26 25 23 22 26 24 23 19 17 12 12 12 18 18 16 11 14
17 17 15 14 14 14 14 11 12 14 16 14 16 17 17 20 21 19 16 14 14 15 16 17 20 19 19 21 25 26 25 28 27 24 21 14 12 10 14 12 10 11 13 13 14
19 18 19 19 17 16 16 13 12 11 14 12 13 14 15 16 16 19 18 16 15 13 15 16 20 21 19 20 23 24 27 28 24 24 23 20 18 8 10 12 11 11 22 20 21
22 22 21 21 21 20 18 17 15 14 18 15 14 14 16 16 17 17 21 20 18 16 15 16 20 16 19 21 21 23 23 22 23 24 27 21 19 15 10 14 12 17 25 22 26
24 25 25 25 23 21 20 19 18 18 16 17 15 17 18 18 17 17 18 20 20 19 17 19 18 20 19 20 21 22 21 18 16 17 19 16 19 15 21 19 25 22 20 21 29
26 25 25 25 25 25 23 21 21 21 21 20 18 18 18 18 18 17 18 19 20 21 19 12 13 21 21 17 19 22 21 18 13 13 13 15 18 18 22 26 30 29 27 29 31
31 30 29 29 27 26 25 23 25 26 22 24 22 22 21 19 19 17 18 19 18 22 20 14 16 28 22 21 19 17 22 18 23 23 23 16 14 21 23 20 21 18 23 26 27
30 31 33 33 32 31 30 27 29 26 26 27 27 24 23 24 18 18 21 26 25 18 20 22 24 26 27 22 20 19 17 19 20 21 21 17 16 15 22 13 9 13 13 18 27
26 27 28 30 32 34 32 33 33 28 30 29 30 29 28 26 23 24 27 24 22 21 20 22 23 17 24 24 17 21 21 24 23 22 18 17 14 20 20 30 16 16 14 15 25
28 27 28 27 29 30 30 36 30 35 34 34 33 34 32 31 29 30 32 32 21 22 23 25 20 20 23 19 17 22 20 19 21 19 20 22 26 23 21 24 22 25 16 16 30
31 29 28 28 30 30 32 32 34 34 34 37 37 38 35 34 35 34 38 34 31 30 30 26 27 23 20 18 21 28 28 29 29 30 30 26 24 16 18 20 24 22 26 23 32
35 35 31 30 31 31 34 33 33 33 34 35 37 39 40 38 39 40 40 43 38 40 34 34 33 32 26 21 31 24 25 25 26 28 25 26 23 19 19 23 24 26 26 28 31
38 39 34 38 34 33 35 34 35 36 36 36 36 38 40 43 43 43 44 45 42 45 42 44 40 36 34 32 35 35 36 32 29 27 29 26 28 26 29 29 24 24 23 26 30
39 38 39 41 38 37 39 37 36 38 41 38 38 38 39 42 44 49 50 48 49 47 49 49 45 43 44 41 36 41 41 41 39 37 37 36 37 31 30 28 29 26 23 23 26
41 42 43 46 42 42 42 38 37 39 43 40 42 41 40 44 48 46 47 49 49 48 52 47 49 47 48 44 44 48 43 40 40 39 39 38 35 30 30 25 25 33 27 25 21
Wind_Direction
254 259 263 261 256 250 248 249 250 254 256 259 262 272 281 277 272 272 276 272 275 279 272 271 265 260 241 225 218 207 212 209 247 230 261 281 260 277 297 295 319 347 340 317 295
252 256 261 262 256 252 250 249 249 250 249 250 252 258 264 270 276 278 278 276 277 271 259 250 246 247 235 233 231 224 209 201 251 240 226 258 270 275 294 290 319 339 351 321 285
257 260 261 262 262 254 250 249 249 249 248 247 249 253 257 262 267 270 270 278 275 264 252 244 233 238 241 236 232 232 226 205 246 253 241 240 261 277 271 280 257 325 338 330 305
256 257 261 263 260 261 259 254 252 250 250 249 249 252 255 260 262 268 264 265 271 288 264 245 231 234 248 243 254 252 235 220 231 235 249 245 245 251 257 267 273 318 335 325 309
260 261 261 261 261 258 258 258 256 254 253 252 251 251 253 257 261 263 266 261 261 269 286 268 247 246 252 248 248 257 257 242 250 231 241 241 246 224 248 257 271 311 325 309 304
258 258 257 258 259 260 260 262 264 262 258 255 254 254 253 255 258 259 263 267 262 258 263 284 273 245 247 253 249 253 258 265 259 241 236 245 238 237 248 256 270 285 318 327 278
257 259 259 259 259 260 262 263 264 264 265 263 260 258 259 260 256 254 260 261 265 261 256 258 265 255 242 251 249 245 249 253 264 252 237 247 241 250 252 276 259 278 291 326 271
258 258 258 257 257 258 261 264 265 264 266 266 266 266 265 262 259 256 256 260 262 268 259 249 249 254 248 250 258 256 262 271 269 260 240 258 250 258 258 250 262 259 285 296 304
253 254 255 257 257 259 260 261 261 262 261 262 263 264 261 265 265 262 256 259 260 258 261 250 242 245 245 244 253 270 268 273 256 235 248 275 247 231 231 245 254 242 254 283 296
256 257 257 257 258 259 260 262 263 264 264 264 265 265 266 264 267 267 265 258 258 256 257 256 243 238 240 245 233 254 281 261 241 263 281 252 260 227 228 251 274 244 249 251 272
258 256 257 258 258 258 258 258 259 259 260 263 264 267 267 267 264 264 267 267 261 255 253 256 250 239 238 241 233 243 245 248 232 236 266 276 265 253 252 259 247 269 253 265 252
251 252 254 255 253 250 250 251 254 258 260 261 263 264 267 268 270 273 264 261 259 254 253 254 259 244 239 246 249 250 249 255 257 263 273 282 286 283 262 261 255 254 250 234 245
240 236 231 237 234 240 243 248 254 254 257 259 262 265 264 264 268 273 275 262 258 260 254 251 253 257 254 250 253 254 252 252 255 260 280 290 286 285 278 251 248 240 218 233 252
239 235 221 224 227 227 235 247 252 252 255 255 259 262 265 261 262 264 263 265 264 260 259 255 253 257 256 252 254 256 257 255 261 265 275 287 276 289 261 245 250 252 238 246 259
235 237 234 228 236 241 245 246 249 252 256 271 263 266 260 257 256 256 259 258 261 266 264 263 258 263 258 257 257 258 260 267 269 268 267 255 271 255 242 252 257 255 261 238 257
239 242 243 241 240 243 245 242 243 244 251 269 271 269 264 262 258 250 254 257 259 263 265 261 269 269 260 255 258 260 262 267 267 267 266 269 260 244 254 274 242 236 262 242 248
243 245 245 245 245 246 248 246 244 243 260 262 266 269 267 261 258 256 254 253 257 257 263 264 266 267 266 269 261 260 264 266 271 266 277 269 257 251 225 238 236 249 244 264 251
246 249 250 249 249 248 248 247 245 250 254 261 263 265 261 264 260 259 257 255 252 254 243 262 281 272 265 266 267 269 263 253 248 250 263 259 249 260 259 239 248 269 272 263 264
250 250 250 250 249 249 248 245 245 248 252 254 255 258 261 259 257 253 251 251 254 247 246 251 263 261 268 267 264 269 252 261 256 253 241 243 265 292 308 286 264 278 277 282 271
252 253 253 253 253 251 250 249 249 246 249 251 250 251 256 258 253 249 253 250 252 254 248 249 253 267 267 261 264 260 247 262 269 268 255 256 265 282 262 278 262 257 272 285 281
251 255 258 261 260 258 256 253 251 245 248 251 251 253 250 255 250 249 238 255 250 252 251 250 253 250 264 271 261 273 264 262 254 236 247 259 260 248 238 252 264 268 272 282 278
252 253 255 257 258 259 257 255 258 252 248 248 250 254 253 251 249 247 249 253 245 245 247 249 258 251 258 262 265 258 245 260 266 268 270 261 251 231 252 265 269 269 277 281 277
253 254 254 254 255 256 255 256 255 255 251 251 248 250 253 253 251 248 254 256 253 248 248 254 256 252 255 267 287 276 265 261 261 263 263 256 262 256 266 279 275 259 252 259 284
250 254 252 254 256 258 257 255 255 253 253 252 252 251 249 249 251 250 250 256 250 255 252 252 252 257 250 216 236 245 269 268 255 259 264 271 282 284 279 275 268 267 254 252 250
248 252 255 257 258 259 260 258 258 257 254 253 253 253 252 250 250 252 253 253 251 253 253 255 256 256 258 251 251 257 261 263 263 265 266 266 254 253 258 278 280 274 273 262 260
249 253 255 256 257 259 259 259 259 259 255 254 254 254 253 253 251 250 250 252 257 256 254 258 259 259 258 259 254 260 259 258 259 263 270 273 277 280 283 281 279 278 266 272 257
252 258 260 260 260 260 261 261 263 260 260 259 257 256 257 252 251 255 256 253 254 255 259 257 260 259 261 261 260 254 255 263 267 265 267 269 277 277 273 272 273 271 262 263 260
Height
5895 5896 5896 5897 5897 5898 5899 5900 5902 5903 5903 5904 5904 5904 5904 5904 5905 5904 5905 5906 5906 5906 5907 5907 5907 5907 5908 5909 5910 5912 5914 5922 5931 5930 5931 5924 5927 5922 5924 5922 5921 5918 5916 5913 5910
5892 5893 5894 5894 5895 5895 5896 5898 5899 5900 5901 5902 5902 5902 5903 5903 5904 5903 5904 5904 5903 5904 5905 5905 5906 5907 5907 5908 5909 5910 5912 5919 5928 5924 5927 5926 5924 5922 5922 5920 5918 5915 5913 5911 5910
5889 5890 5891 5892 5893 5893 5893 5895 5896 5898 5898 5899 5899 5900 5901 5901 5903 5903 5903 5903 5903 5903 5904 5904 5905 5906 5907 5907 5908 5909 5909 5917 5924 5919 5920 5921 5922 5922 5921 5920 5903 5913 5913 5912 5910
5886 5888 5888 5889 5890 5890 5891 5892 5893 5894 5895 5896 5896 5897 5898 5899 5902 5901 5902 5902 5903 5903 5903 5903 5904 5905 5907 5907 5908 5907 5908 5909 5913 5916 5915 5916 5919 5919 5920 5919 5915 5913 5913 5911 5910
5883 5884 5885 5886 5887 5888 5889 5890 5890 5891 5892 5892 5893 5894 5895 5897 5898 5898 5899 5900 5901 5902 5902 5902 5903 5904 5905 5906 5906 5906 5906 5906 5907 5907 5909 5912 5913 5915 5916 5916 5914 5913 5913 5911 5910
5880 5881 5882 5883 5884 5885 5886 5887 5887 5888 5888 5889 5890 5891 5892 5893 5895 5896 5896 5898 5899 5900 5901 5901 5901 5902 5903 5904 5904 5904 5904 5904 5903 5904 5907 5909 5910 5913 5914 5913 5912 5912 5912 5910 5909
5877 5878 5880 5881 5881 5883 5884 5884 5885 5886 5886 5886 5886 5887 5889 5890 5891 5893 5893 5894 5896 5897 5898 5899 5900 5900 5901 5902 5902 5902 5901 5901 5900 5901 5903 5906 5905 5908 5913 5910 5912 5910 5910 5909 5908
5873 5875 5876 5877 5879 5880 5881 5881 5882 5883 5883 5883 5884 5885 5886 5887 5888 5889 5890 5891 5893 5894 5895 5896 5897 5898 5899 5900 5900 5900 5899 5900 5901 5900 5902 5900 5904 5910 5911 5912 5909 5910 5907 5907 5905
5870 5871 5872 5874 5875 5876 5877 5877 5878 5879 5879 5880 5881 5882 5884 5884 5885 5885 5886 5888 5889 5891 5891 5892 5894 5895 5897 5897 5898 5898 5899 5900 5902 5901 5900 5898 5901 5906 5909 5908 5907 5908 5909 5906 5904
5866 5867 5868 5869 5871 5872 5873 5874 5874 5875 5875 5876 5877 5879 5880 5881 5881 5882 5883 5884 5885 5886 5887 5889 5890 5891 5894 5894 5897 5902 5901 5899 5902 5902 5896 5898 5898 5901 5905 5905 5903 5903 5905 5906 5904
5861 5862 5863 5864 5865 5867 5869 5870 5872 5872 5872 5873 5874 5874 5876 5877 5877 5878 5879 5881 5882 5882 5883 5884 5886 5888 5890 5890 5891 5891 5893 5895 5896 5896 5893 5894 5895 5896 5898 5899 5901 5901 5901 5902 5900
5856 5858 5859 5860 5861 5863 5864 5865 5866 5868 5868 5869 5869 5870 5872 5872 5873 5874 5876 5877 5877 5878 5879 5881 5882 5884 5884 5886 5887 5888 5889 5891 5890 5890 5890 5891 5891 5891 5893 5892 5894 5897 5895 5895 5895
5852 5853 5855 5856 5858 5860 5861 5862 5863 5864 5865 5865 5865 5865 5868 5868 5868 5870 5872 5872 5874 5875 5876 5877 5878 5878 5881 5881 5883 5884 5885 5887 5886 5886 5886 5888 5888 5888 5888 5888 5890 5889 5890 5890 5890
5848 5850 5852 5854 5856 5856 5858 5859 5860 5860 5861 5863 5862 5862 5863 5864 5865 5866 5868 5870 5870 5871 5872 5873 5873 5874 5876 5877 5878 5880 5881 5881 5882 5884 5885 5889 5888 5890 5890 5889 5887 5889 5888 5887 5888
5844 5846 5849 5851 5852 5854 5855 5856 5857 5858 5859 5860 5859 5859 5859 5860 5862 5862 5864 5865 5867 5868 5870 5870 5869 5870 5871 5873 5874 5875 5875 5876 5879 5880 5880 5883 5885 5888 5890 5888 5887 5890 5884 5883 5884
5838 5841 5844 5846 5848 5850 5851 5852 5854 5856 5853 5855 5855 5855 5855 5856 5857 5859 5859 5861 5863 5865 5866 5866 5866 5867 5867 5867 5869 5870 5871 5872 5874 5875 5874 5877 5880 5885 5889 5889 5887 5884 5880 5880 5880
5833 5835 5838 5840 5843 5844 5846 5848 5851 5851 5852 5852 5852 5852 5852 5852 5853 5854 5855 5857 5859 5861 5862 5862 5863 5862 5863 5864 5865 5865 5866 5869 5872 5872 5873 5876 5877 5879 5882 5880 5879 5877 5876 5875 5875
5827 5829 5831 5833 5836 5838 5841 5843 5845 5845 5846 5847 5848 5847 5848 5850 5850 5851 5852 5852 5854 5856 5858 5861 5863 5858 5859 5861 5862 5861 5863 5866 5869 5874 5878 5874 5873 5874 5872 5872 5870 5870 5870 5869 5869
5820 5822 5824 5827 5829 5832 5835 5837 5838 5839 5842 5842 5843 5843 5844 5845 5847 5848 5849 5849 5850 5851 5854 5856 5857 5853 5856 5856 5858 5859 5858 5861 5859 5863 5865 5870 5873 5868 5866 5863 5865 5865 5862 5862 5861
5812 5815 5817 5819 5822 5824 5828 5831 5832 5834 5835 5835 5837 5840 5841 5840 5843 5844 5844 5843 5844 5846 5848 5849 5850 5850 5850 5853 5853 5853 5857 5856 5855 5857 5859 5865 5867 5869 5864 5862 5862 5861 5861 5858 5852
5805 5807 5810 5812 5814 5817 5820 5822 5824 5828 5828 5830 5831 5833 5835 5836 5839 5839 5839 5838 5841 5843 5843 5844 5844 5848 5845 5847 5850 5849 5850 5850 5851 5854 5855 5859 5864 5861 5857 5855 5855 5854 5855 5855 5849
5798 5801 5801 5804 5807 5808 5811 5811 5818 5817 5820 5822 5824 5825 5828 5830 5832 5833 5832 5831 5838 5838 5838 5836 5839 5841 5842 5843 5844 5844 5847 5848 5845 5848 5848 5849 5851 5853 5850 5849 5849 5848 5849 5851 5842
5791 5793 5795 5797 5798 5800 5801 5803 5805 5808 5811 5813 5816 5817 5819 5823 5824 5826 5825 5828 5830 5832 5831 5834 5833 5835 5837 5840 5840 5837 5838 5839 5840 5839 5841 5842 5845 5848 5846 5843 5842 5841 5840 5840 5837
5783 5784 5788 5789 5790 5791 5792 5794 5797 5799 5801 5804 5807 5808 5811 5813 5813 5816 5818 5816 5822 5821 5826 5826 5827 5828 5832 5836 5830 5831 5830 5833 5834 5832 5835 5836 5838 5841 5840 5837 5834 5833 5832 5833 5831
5773 5774 5780 5779 5782 5783 5783 5786 5788 5789 5791 5793 5796 5799 5802 5803 5805 5806 5807 5808 5812 5811 5815 5815 5818 5821 5823 5826 5825 5825 5824 5825 5825 5827 5827 5830 5830 5831 5830 5829 5829 5828 5826 5824 5824
5763 5766 5769 5769 5772 5774 5774 5777 5778 5779 5780 5783 5785 5787 5790 5793 5796 5795 5794 5798 5799 5801 5802 5803 5808 5811 5811 5814 5818 5815 5815 5815 5817 5818 5818 5818 5818 5821 5821 5822 5822 5821 5820 5819 5818
5752 5754 5757 5757 5763 5764 5764 5767 5769 5769 5769 5774 5774 5776 5779 5779 5779 5785 5788 5789 5790 5791 5790 5795 5794 5797 5798 5803 5804 5801 5807 5810 5810 5810 5810 5809 5813 5814 5813 5814 5816 5809 5811 5811 5811